Home > Weather > São Paulo > Past weeks

Flag for Brazil Weather for the Past 2 Weeks in São Paulo, São Paulo, Brazil

Now
72 °F

Light rain. Clear.


Feels Like: 69 °F
Forecast: 70 / 85 °F
Wind: 5 mph from West

Location: Sao Paulo Airport

Current Time: Feb 5, 2016 at 11:11:53 PM

Latest Report: Feb 5, 2016 at 10:00 PM


Visibility: 5 mi

Pressure: 30.15 "Hg (27.59 "Hg at 765m altitude)

Humidity: 88%

Dew point: 68 °F

Location of São PauloLocation

Historic Weather in São Paulo — Graph

°F

São Paulo Temperature Yesterday

Maximum temperature yesterday: 82 °F (at 3:00 PM)
Minimum temperature yesterday: 70 °F (at 5:00 AM)
Average temperature yesterday: 75 °F

High & Low Weather Summary for the Past Weeks

 TemperatureHumidityPressure
High91 °F (Feb 5, 3:00 PM)89% (Jan 24, 3:00 PM)30.15 "Hg (Jan 24, 3:00 PM)
Low61 °F (Jan 22, 2:00 AM)27% (Jan 31, 3:00 PM)29.86 "Hg (Jan 26, 6:00 PM)
Average76 °F69%30.06 "Hg
* Reported Jan 21 10:00 PM — Feb 5 10:00 PM, São Paulo, Weather by CustomWeather, © 2016

Note: Actual official high and low records may vary slightly from our data, if they occured in-between our weather recording intervals... More about our weather records

Advertising

São Paulo Weather History for the Previous 24 Hours

 ConditionsComfort  
Time TempWeatherWind HumidityBarometerVisibility
10:00 PM
Fri, Feb 5
72 °FLight rain. Clear.5 mph88%30.15 "Hg5 mi
9:00 PM75 °FLight rain. Partly cloudy.7 mph78%30.15 "Hg4 mi
8:00 PM77 °FClear.6 mph69%30.15 "Hg10 mi
7:00 PM75 °FSunny.9 mph74%30.09 "Hg10 mi
6:00 PM75 °FLight rain. Clear.10 mph69%30.07 "HgN/A
5:00 PM72 °FThunderstorms. Scattered clouds.25 mph73%30.09 "Hg1 mi
4:00 PM82 °FThundershowers. Scattered clouds.17 mph66%N/AN/A
3:00 PM91 °FScattered clouds.6 mph36%30.07 "HgN/A
2:00 PM90 °FScattered clouds.8 mph38%30.09 "HgN/A
1:00 PM88 °FPassing clouds.8 mph43%30.09 "HgN/A
12:00 PM86 °FPassing clouds.13 mph46%29.89 "HgN/A
11:00 AM84 °FPassing clouds.7 mph51%30.12 "HgN/A
10:00 AM81 °FPassing clouds.8 mph62%30.12 "HgN/A
9:00 AM79 °FSunny.3 mph65%30.09 "Hg10 mi
8:00 AM75 °FSunny.3 mph69%30.09 "Hg10 mi
7:00 AM73 °FSunny.6 mph74%30.07 "Hg10 mi
6:00 AM73 °FPassing clouds.6 mph74%30.04 "HgN/A
5:00 AM73 °FPassing clouds.7 mph74%30.04 "HgN/A
4:00 AM73 °FClear.6 mph78%30.04 "Hg10 mi
3:00 AM75 °FPassing clouds.6 mph74%30.04 "HgN/A
2:00 AM75 °FPassing clouds.6 mph74%30.07 "HgN/A
1:00 AM77 °FPassing clouds.6 mph69%30.07 "HgN/A
12:00 AM77 °FPassing clouds.6 mph69%30.07 "HgN/A
11:00 PM
Thu, Feb 4
77 °FClear.3 mph69%30.09 "Hg10 mi
Weather by CustomWeather, © 2016

See weather overviewHow to use our weather pages